Regional Weather Roundup
Issued by NWS Nashville, TN

Home | Current Version | Previous Version | Text Only | Print | Product List | Glossary On
Versions: 1 2 3 4 5 6 7 8 9 10 11 12 13 14 15 16 17 18 19 20 21 22 23 24 25 26 27 28
000
ASUS44 KOHX 180310
RWROHX
MIDDLE TENNESSEE HOURLY WEATHER ROUNDUP
NATIONAL WEATHER SERVICE NASHVILLE TN
1000 PM CDT TUE OCT 17 2017

NOTE: "FAIR" INDICATES FEW OR NO CLOUDS BELOW 12,000 FEET WITH
NO SIGNIFICANT WEATHER AND/OR OBSTRUCTIONS TO VISIBILITY.

* THESE REPORTS ARE NOT UNDER NWS QUALITY CONTROL AND MAY NOT
  REPORT WEATHER SUCH AS PRECIPITATION AND FOG.


TNZ005>011-023>034-057-059-062>066-078-080-180400
...NORTHERN MIDDLE TENNESSEE...

CITY           SKY/WX    TMP DP  RH WIND       PRES   REMARKS
CLARKSVILLE    PTCLDY    49  45  86 CALM      30.27R
CROSSVILLE     CLOUDY    44  41  89 CALM      30.31R
GALLATIN       CLEAR     48  45  87 CALM      30.30S
DICKSON          N/A     46  44  93 CALM      30.26S
LEBANON        CLEAR     44  41  89 CALM      30.27R
NASHVILLE      PTCLDY    51  45  79 CALM      30.28R
PORTLAND       CLEAR     48  46  93 CALM      30.27S FOG
SMYRNA         CLEAR     45  44  97 CALM      30.29R
SPARTA         CLEAR     43  43 100 CALM      30.28S FOG
SPRINGFIELD    CLEAR     46  46 100 CALM      30.25S
WEST NASHVILLE CLEAR     48  46  93 CALM      30.26R FOG
$$
TNZ056-058-060-061-075>077-079-093>097-180400
...SOUTHERN MIDDLE TENNESSEE...

CITY           SKY/WX    TMP DP  RH WIND       PRES   REMARKS
COLUMBIA       CLEAR     48  46  93 CALM      30.26R
FAYETTEVILLE   CLEAR     52  46  82 CALM      30.27R
MURFREESBORO   CLEAR     51  45  80 CALM      30.28R
PULASKI        CLEAR     46  46 100 CALM      30.27S
SHELBYVILLE    CLEAR     50  46  87 CALM      30.28R
TULLAHOMA      CLEAR     46  43  87 CALM      30.29S
WINCHESTER     CLEAR     46  46 100 CALM        N/A
$$


...KEY TO REMARKS...
VSB - VISIBILITY IN MILES
WCI - WIND CHILL INDEX
HX  - HEAT INDEX





USA.gov is the U.S. government's official web portal to all federal, state and local government web resources and services.